Location: Bullards Ferry
(33.9807°N, 82.8096°W)
Time: 05:18:36
(UTC+00:00)

X-37B - Visible Passes

Search period start: 27 November 2021 00:00
Search period end: 07 December 2021 00:00
Orbit: 330 x 341 km, 45.0° (Epoch: 20 November)

Date Brightness Start Highest point End Pass type
(mag) Time Alt. Az. Time Alt. Az. Time Alt. Az.
03 Dec 1.9 23:32:52 10° SSW 23:35:08 21° SE 23:35:19 21° SE visible
04 Dec 0.5 23:52:35 10° SW 23:55:10 67° SSW 23:55:10 67° SSW visible
06 Dec 2.5 00:13:17 10° W 00:14:56 25° WNW 00:14:56 25° WNW visible
06 Dec 0.3 22:58:01 10° SW 23:00:52 76° SE 23:03:24 12° ENE visible
